#timestamp,LO_Frequency,Hit 
1502949615.6,286047005.9,N
1502949635.4,286047001.5,N
1502949655.3,286047003.8,N
1502949675.1,286047001.5,N
1502949676.0,286047001.5,N
1502949695.8,286047002.9,N
1502949715.7,286047008.3,P
1502949735.5,286047005.2,N
1502949755.3,286047001.5,N
1502949775.2,286046999.9,N
1502949795.9,286047004.0,N
1502949815.7,286046998.1,N
1502949835.5,286047002.6,N
1502949855.4,286047004.4,N
1502949875.2,286046999.3,N
1502949895.0,286047000.3,N
1502949895.9,286047000.3,N
1502949915.8,286047000.3,N
1502949935.6,286047000.6,N
1502949955.4,286047003.8,N
1502949975.3,286047005.2,N
1502949995.1,286047007.3,N
1502949996.0,286047007.3,N
1502950015.8,286047010.4,P
1502950035.7,286047008.8,N
1502950055.5,286047008.1,N
1502950075.3,286047008.8,P
1502950095.2,286047004.0,P
1502950115.0,286047004.3,N
1502950115.9,286047004.3,N
1502950135.7,286047005.4,N
1502950155.6,286047007.5,P
1502950175.4,286047000.7,N
1502950195.2,286047000.6,N
1502950215.1,286047003.4,N
1502950216.0,286047003.4,N
1502950235.8,286047004.7,N
1502950255.6,286047005.5,N
1502950275.5,286047003.0,N
1502950295.3,286047001.3,N
1502950315.1,286047002.9,N
1502950335.9,286047003.6,N
1502950355.7,286047004.5,N
1502950375.5,286047005.1,N
1502950395.4,286047006.3,P
1502950415.2,286047003.9,N
1502950435.0,286047006.4,P
1502950436.0,286047006.4,P
1502950455.8,286047000.7,N
1502950475.6,286047002.0,N
1502950495.4,286047003.3,N
1502950515.3,286046999.7,N
1502950535.1,286047001.9,N
1502950555.8,286047001.7,N
1502950575.7,286047002.1,N
1502950595.5,286047001.6,N
1502950615.3,286047003.8,N
1502950635.2,286047004.0,N
1502950655.9,286047004.9,N
1502950675.7,286047007.1,P
1502950695.6,286047005.8,N
1502950715.4,286047007.4,P
1502950735.2,286047007.1,P
1502950755.1,286047002.4,P
1502950756.0,286047002.4,N
1502950775.8,286047004.7,N
1502950795.6,286047007.2,P
1502950815.5,286047002.5,N
1502950835.3,286047004.1,N
1502950855.1,286047004.4,N
1502950875.9,286047003.7,N
1502950895.7,286047004.0,N
1502950915.5,286047005.4,P
1502950935.4,286047001.7,P
1502950955.2,286047002.1,N
1502950975.0,286047000.3,N
1502950975.9,286047000.3,N
1502950995.8,286047003.1,N
1502951015.6,286046999.7,N
1502951035.4,286047002.5,N
1502951055.3,286047000.4,N
1502951075.1,286046999.1,N
1502951095.8,286046998.6,N
1502951115.7,286046999.8,N
1502951135.5,286047004.0,N
1502951155.3,286047002.4,N
1502951175.2,286047001.5,N
1502951195.9,286047002.0,N
1502951215.7,286047004.3,N
1502951235.6,286047001.4,N
1502951255.4,286047004.4,N
1502951275.2,286047003.3,N
1502951295.0,286047002.0,N
1502951295.9,286047002.0,N
1502951315.8,286047003.5,N
1502951335.6,286047007.1,P
1502951355.5,286047001.9,N
1502951375.3,286047004.3,N
1502951395.1,286047002.1,N
1502951415.8,286047002.0,N
1502951435.7,286047002.1,N
1502951455.5,286047004.4,N
1502951475.3,286047002.6,N
1502951495.2,286047006.0,P
1502951515.0,286047002.3,N
1502951515.9,286047002.3,N
1502951535.7,286047001.0,N
1502951555.6,286046996.6,N
1502951575.4,286046999.3,N
1502951595.2,286047002.6,N
1502951615.1,286047000.6,N
1502951616.0,286047000.6,N
1502951635.8,286046998.5,N
1502951655.6,286046998.1,N
1502951675.5,286047002.8,N
1502951695.3,286047000.2,N
1502951715.1,286047002.1,N
1502951735.9,286047002.3,N
1502951755.7,286046998.4,N
1502951775.5,286046997.6,N
1502951795.4,286046994.9,N
1502951815.2,286046998.7,N
1502951835.0,286047000.9,N
1502951835.9,286047000.9,N
1502951855.8,286046998.3,N
1502951875.6,286046999.4,N
1502951895.4,286047000.1,N
1502951915.2,286046998.6,N
1502951935.1,286046997.2,N
1502951936.0,286046997.2,N
1502951955.8,286046998.1,N
1502951975.6,286047000.4,N
1502951995.5,286047002.2,N
1502952015.3,286047001.3,N
1502952035.1,286047004.1,N
1502952055.9,286047001.0,N
1502952075.7,286047002.2,N
1502952095.5,286047001.9,N
1502952115.4,286047004.3,N
1502952135.2,286046998.4,N
1502952155.0,286046999.1,N
1502952155.9,286046999.1,N
1502952175.8,286046996.5,N
1502952195.6,286046997.1,N
1502952215.4,286046995.2,N
1502952235.3,286046996.3,N
1502952255.1,286046993.3,N
1502952256.0,286046993.3,N
1502952275.8,286046995.9,N
1502952295.7,286046993.6,N
1502952315.5,286046998.9,N
1502952335.3,286047002.8,N
1502952355.1,286047005.9,N
1502952375.9,286047004.2,N
1502952395.7,286046999.8,N
1502952415.5,286046999.3,N
1502952435.4,286046997.5,N
1502952455.2,286046997.6,N
1502952475.0,286046998.0,N
1502952475.9,286046998.0,N
1502952495.8,286046995.1,N
1502952515.6,286046996.1,N
1502952535.4,286046994.9,N
1502952555.3,286046996.2,N
1502952575.1,286046991.9,N
1502952576.0,286046991.9,N
1502952595.8,286046992.8,N
1502952615.7,286046992.3,N
1502952635.5,286046992.9,N
1502952655.3,286046992.0,N
1502952675.2,286046992.2,N
1502952695.9,286046992.0,N
1502952715.7,286046995.1,N
1502952735.6,286046992.1,N
1502952755.4,286046992.1,N
1502952775.2,286046993.9,N
1502952795.0,286046997.5,N
1502952796.0,286046997.5,N
1502952815.8,286046995.7,N
1502952835.6,286046995.8,N
1502952855.4,286046997.9,N
1502952875.3,286046994.5,N
1502952895.1,286046995.5,N
1502952915.8,286046993.3,N
1502952935.7,286046995.8,N
1502952955.5,286046997.2,N
1502952975.3,286046995.6,N
1502952995.2,286046994.8,N
1502953015.9,286046992.4,P
1502953035.7,286047001.1,N
1502953055.6,286046996.5,N
1502953075.4,286046999.0,N
1502953095.2,286047001.2,N
1502953115.1,286046997.5,N
1502953116.0,286046997.5,N
1502953135.8,286046996.1,N
1502953155.6,286046995.6,N
1502953175.5,286046997.7,N
1502953195.3,286046996.9,N
